User: anonymous   Login
Location: Unspecified
(0.0000°N, 0.0000°E)
Time: 02:11:43
(UTC+00:00)
Language:

STARLINK-31523 - Orbit

View from above orbital plane
View from above orbital plane
View from above satellite
View from above satellite

Ground track
Ground track

The orbit is defined by the following mean orbital elements,

1 59220U          26145.44533326 +.00000000 +00000-0 +18763-4 0 00008
2 59220  53.1600 157.9324 0001187  78.0536 282.0600 15.34387708    06
Epoch (UTC): 25 May 2026 10:41:16
Eccentricity: 0.0001187
inclination: 53.1600°
perigee height: 462 km
apogee height: 464 km
right ascension of ascending node: 157.9324°
argument of perigee: 78.0536°
revolutions per day: 15.34387708
mean anomaly at epoch: 282.0600°

The dashed part of the orbit path shows where the satellite is in the earth's shadow,  

DLR